owner,sensor,date,latitude,longitude,vertical_datum,sea_water_temperature,qcFlag 
TABS,ioos:station:wmo:42044:1,2004-07-07T22:00:00Z,26.1914,-97.0507,-2.0,27.51,11111222 
TABS,ioos:station:wmo:42044:1,2004-07-07T22:30:00Z,26.1914,-97.0507,-2.0,27.02,11111222 
TABS,ioos:station:wmo:42044:1,2004-07-07T23:00:00Z,26.1914,-97.0507,-2.0,27.13,11111222 
TABS,ioos:station:wmo:42044:1,2004-07-07T23:30:00Z,26.1914,-97.0507,-2.0,27.07,11111222 
TABS,ioos:station:wmo:42044:1,2004-07-08T00:00:00Z,26.1914,-97.0507,-2.0,27.05,11111222 
TABS,ioos:station:wmo:42044:1,2004-07-08T00:30:00Z,26.1914,-97.0507,-2.0,26.97,11111222 
TABS,ioos:station:wmo:42044:1,2004-07-08T01:00:00Z,26.1914,-97.0507,-2.0,26.92,11111222 
TABS,ioos:station:wmo:42044:1,2004-07-08T01:30:00Z,26.1914,-97.0507,-2.0,26.78,11111222 
TABS,ioos:station:wmo:42044:1,2004-07-08T02:00:00Z,26.1914,-97.0507,-2.0,26.76,11111222 
TABS,ioos:station:wmo:42044:1,2004-07-08T03:00:00Z,26.1914,-97.0507,-2.0,26.72,11111222 
TABS,ioos:station:wmo:42044:1,2004-07-08T04:00:00Z,26.1914,-97.0507,-2.0,26.71,11111222 
TABS,ioos:station:wmo:42044:1,2004-07-08T04:30:00Z,26.1914,-97.0507,-2.0,26.7,11111222 
TABS,ioos:station:wmo:42044:1,2004-07-08T05:00:00Z,26.1914,-97.0507,-2.0,26.66,11111222 
TABS,ioos:station:wmo:42044:1,2004-07-08T05:30:00Z,26.1914,-97.0507,-2.0,26.61,11111222 
TABS,ioos:station:wmo:42044:1,2004-07-08T06:00:00Z,26.1914,-97.0507,-2.0,26.5,11111222 
TABS,ioos:station:wmo:42044:1,2004-07-08T06:30:00Z,26.1914,-97.0507,-2.0,26.43,11111222 
TABS,ioos:station:wmo:42044:1,2004-07-08T07:00:00Z,26.1914,-97.0507,-2.0,26.36,11111222 
TABS,ioos:station:wmo:42044:1,2004-07-08T07:30:00Z,26.1914,-97.0507,-2.0,26.32,11111222 
TABS,ioos:station:wmo:42044:1,2004-07-08T08:00:00Z,26.1914,-97.0507,-2.0,26.3,11111222 
TABS,ioos:station:wmo:42044:1,2004-07-08T08:30:00Z,26.1914,-97.0507,-2.0,26.26,11111222 
TABS,ioos:station:wmo:42044:1,2004-07-08T09:00:00Z,26.1914,-97.0507,-2.0,26.25,11111222 
TABS,ioos:station:wmo:42044:1,2004-07-08T09:30:00Z,26.1914,-97.0507,-2.0,26.22,11111222 
TABS,ioos:station:wmo:42044:1,2004-07-08T10:00:00Z,26.1914,-97.0507,-2.0,26.19,11111222 
TABS,ioos:station:wmo:42044:1,2004-07-08T10:30:00Z,26.1914,-97.0507,-2.0,26.12,11111222 
TABS,ioos:station:wmo:42044:1,2004-07-08T11:00:00Z,26.1914,-97.0507,-2.0,26.03,11111222 
TABS,ioos:station:wmo:42044:1,2004-07-08T11:30:00Z,26.1914,-97.0507,-2.0,25.91,11111222 
TABS,ioos:station:wmo:42044:1,2004-07-08T12:00:00Z,26.1914,-97.0507,-2.0,25.79,11111222 
TABS,ioos:station:wmo:42044:1,2004-07-08T12:30:00Z,26.1914,-97.0507,-2.0,25.69,11111222 
TABS,ioos:station:wmo:42044:1,2004-07-08T13:00:00Z,26.1914,-97.0507,-2.0,25.6,11111222 
TABS,ioos:station:wmo:42044:1,2004-07-08T13:30:00Z,26.1914,-97.0507,-2.0,25.57,11111222 
TABS,ioos:station:wmo:42044:1,2004-07-08T14:00:00Z,26.1914,-97.0507,-2.0,25.58,11111222 
TABS,ioos:station:wmo:42044:1,2004-07-08T14:30:00Z,26.1914,-97.0507,-2.0,25.54,11111222 
TABS,ioos:station:wmo:42044:1,2004-07-08T15:00:00Z,26.1914,-97.0507,-2.0,25.56,11111222 
TABS,ioos:station:wmo:42044:1,2004-07-08T15:30:00Z,26.1914,-97.0507,-2.0,25.53,11111222 
TABS,ioos:station:wmo:42044:1,2004-07-08T16:00:00Z,26.1914,-97.0507,-2.0,25.48,11111222 
TABS,ioos:station:wmo:42044:1,2004-07-08T17:00:00Z,26.1914,-97.0507,-2.0,25.39,11111222 
TABS,ioos:station:wmo:42044:1,2004-07-08T17:30:00Z,26.1914,-97.0507,-2.0,25.4,11111222 
TABS,ioos:station:wmo:42044:1,2004-07-08T18:00:00Z,26.1914,-97.0507,-2.0,25.38,11111222 
TABS,ioos:station:wmo:42044:1,2004-07-08T18:30:00Z,26.1914,-97.0507,-2.0,25.39,11111222 
TABS,ioos:station:wmo:42044:1,2004-07-08T19:00:00Z,26.1914,-97.0507,-2.0,25.39,11111222 
TABS,ioos:station:wmo:42044:1,2004-07-08T19:30:00Z,26.1914,-97.0507,-2.0,25.41,11111222 
TABS,ioos:station:wmo:42044:1,2004-07-08T20:00:00Z,26.1914,-97.0507,-2.0,25.4,11111222 
TABS,ioos:station:wmo:42044:1,2004-07-08T20:30:00Z,26.1914,-97.0507,-2.0,25.43,11111222 
TABS,ioos:station:wmo:42044:1,2004-07-08T21:00:00Z,26.1914,-97.0507,-2.0,25.56,11111222 
TABS,ioos:station:wmo:42044:1,2004-07-08T21:30:00Z,26.1914,-97.0507,-2.0,25.74,11111222 
TABS,ioos:station:wmo:42044:1,2004-07-08T22:30:00Z,26.1914,-97.0507,-2.0,26.03,11111222 
TABS,ioos:station:wmo:42044:1,2004-07-08T23:00:00Z,26.1914,-97.0507,-2.0,26.12,11111222 
TABS,ioos:station:wmo:42044:1,2004-07-08T23:30:00Z,26.1914,-97.0507,-2.0,26.23,11111222 
TABS,ioos:station:wmo:42044:1,2004-07-09T00:00:00Z,26.1914,-97.0507,-2.0,26.29,11111222 
TABS,ioos:station:wmo:42044:1,2004-07-09T00:30:00Z,26.1914,-97.0507,-2.0,26.2,11111222 
TABS,ioos:station:wmo:42044:1,2004-07-09T01:00:00Z,26.1914,-97.0507,-2.0,26.24,11111222 
TABS,ioos:station:wmo:42044:1,2004-07-09T01:30:00Z,26.1914,-97.0507,-2.0,26.22,11111222 
TABS,ioos:station:wmo:42044:1,2004-07-09T02:00:00Z,26.1914,-97.0507,-2.0,26.21,11111222 
TABS,ioos:station:wmo:42044:1,2004-07-09T02:30:00Z,26.1914,-97.0507,-2.0,26.18,11111222 
TABS,ioos:station:wmo:42044:1,2004-07-09T03:00:00Z,26.1914,-97.0507,-2.0,26.13,11111222 
TABS,ioos:station:wmo:42044:1,2004-07-09T03:30:00Z,26.1914,-97.0507,-2.0,26.12,11111222 
TABS,ioos:station:wmo:42044:1,2004-07-09T04:00:00Z,26.1914,-97.0507,-2.0,26.07,11111222 
TABS,ioos:station:wmo:42044:1,2004-07-09T04:30:00Z,26.1914,-97.0507,-2.0,26.06,11111222 
TABS,ioos:station:wmo:42044:1,2004-07-09T05:00:00Z,26.1914,-97.0507,-2.0,26.01,11111222 
TABS,ioos:station:wmo:42044:1,2004-07-09T05:30:00Z,26.1914,-97.0507,-2.0,25.99,11111222 
TABS,ioos:station:wmo:42044:1,2004-07-09T06:00:00Z,26.1914,-97.0507,-2.0,25.93,11111222 
TABS,ioos:station:wmo:42044:1,2004-07-09T06:30:00Z,26.1914,-97.0507,-2.0,25.88,11111222 
TABS,ioos:station:wmo:42044:1,2004-07-09T07:00:00Z,26.1914,-97.0507,-2.0,25.84,11111222 
TABS,ioos:station:wmo:42044:1,2004-07-09T07:30:00Z,26.1914,-97.0507,-2.0,25.82,11111222 
TABS,ioos:station:wmo:42044:1,2004-07-09T08:00:00Z,26.1914,-97.0507,-2.0,25.82,11111222 
TABS,ioos:station:wmo:42044:1,2004-07-09T08:30:00Z,26.1914,-97.0507,-2.0,25.8,11111222 
TABS,ioos:station:wmo:42044:1,2004-07-09T09:00:00Z,26.1914,-97.0507,-2.0,25.78,11111222 
TABS,ioos:station:wmo:42044:1,2004-07-09T09:30:00Z,26.1914,-97.0507,-2.0,25.75,11111222 
TABS,ioos:station:wmo:42044:1,2004-07-09T10:00:00Z,26.1914,-97.0507,-2.0,25.82,11111222 
TABS,ioos:station:wmo:42044:1,2004-07-09T10:30:00Z,26.1914,-97.0507,-2.0,25.85,11111222 
TABS,ioos:station:wmo:42044:1,2004-07-09T11:00:00Z,26.1914,-97.0507,-2.0,25.79,11111222 
TABS,ioos:station:wmo:42044:1,2004-07-09T11:30:00Z,26.1914,-97.0507,-2.0,25.86,11111222 
TABS,ioos:station:wmo:42044:1,2004-07-09T12:00:00Z,26.1914,-97.0507,-2.0,25.91,11111222 
TABS,ioos:station:wmo:42044:1,2004-07-09T12:30:00Z,26.1914,-97.0507,-2.0,25.83,11111222 
TABS,ioos:station:wmo:42044:1,2004-07-09T13:00:00Z,26.1914,-97.0507,-2.0,25.79,11111222 
TABS,ioos:station:wmo:42044:1,2004-07-09T13:30:00Z,26.1914,-97.0507,-2.0,25.76,11111222 
TABS,ioos:station:wmo:42044:1,2004-07-09T14:00:00Z,26.1914,-97.0507,-2.0,25.74,11111222 
TABS,ioos:station:wmo:42044:1,2004-07-09T14:30:00Z,26.1914,-97.0507,-2.0,25.73,11111222 
TABS,ioos:station:wmo:42044:1,2004-07-09T15:30:00Z,26.1914,-97.0507,-2.0,25.65,11111222 
TABS,ioos:station:wmo:42044:1,2004-07-09T16:00:00Z,26.1914,-97.0507,-2.0,25.63,11111222 
TABS,ioos:station:wmo:42044:1,2004-07-09T16:30:00Z,26.1914,-97.0507,-2.0,25.63,11111222 
TABS,ioos:station:wmo:42044:1,2004-07-09T17:00:00Z,26.1914,-97.0507,-2.0,25.63,11111222 
TABS,ioos:station:wmo:42044:1,2004-07-09T17:30:00Z,26.1914,-97.0507,-2.0,25.66,11111222 
TABS,ioos:station:wmo:42044:1,2004-07-09T18:00:00Z,26.1914,-97.0507,-2.0,25.63,11111222 
TABS,ioos:station:wmo:42044:1,2004-07-09T18:30:00Z,26.1914,-97.0507,-2.0,25.63,11111222 
TABS,ioos:station:wmo:42044:1,2004-07-09T19:00:00Z,26.1914,-97.0507,-2.0,25.72,11111222 
TABS,ioos:station:wmo:42044:1,2004-07-09T19:30:00Z,26.1914,-97.0507,-2.0,25.66,11111222 
TABS,ioos:station:wmo:42044:1,2004-07-09T20:00:00Z,26.1914,-97.0507,-2.0,25.64,11111222 
TABS,ioos:station:wmo:42044:1,2004-07-09T20:30:00Z,26.1914,-97.0507,-2.0,25.65,11111222 
TABS,ioos:station:wmo:42044:1,2004-07-09T21:30:00Z,26.1914,-97.0507,-2.0,25.71,11111222 
TABS,ioos:station:wmo:42044:1,2004-07-09T22:00:00Z,26.1914,-97.0507,-2.0,26.03,11111222 
TABS,ioos:station:wmo:42044:1,2004-07-09T22:30:00Z,26.1914,-97.0507,-2.0,25.83,11111222 
TABS,ioos:station:wmo:42044:1,2004-07-09T23:00:00Z,26.1914,-97.0507,-2.0,25.76,11111222 
TABS,ioos:station:wmo:42044:1,2004-07-09T23:30:00Z,26.1914,-97.0507,-2.0,25.78,11111222 
TABS,ioos:station:wmo:42044:1,2004-07-10T00:00:00Z,26.1914,-97.0507,-2.0,26.25,11111222 
TABS,ioos:station:wmo:42044:1,2004-07-10T00:30:00Z,26.1914,-97.0507,-2.0,26.12,11111222 
TABS,ioos:station:wmo:42044:1,2004-07-10T01:00:00Z,26.1914,-97.0507,-2.0,26.34,11111222 
TABS,ioos:station:wmo:42044:1,2004-07-10T01:30:00Z,26.1914,-97.0507,-2.0,26.34,11111222 
TABS,ioos:station:wmo:42044:1,2004-07-10T02:00:00Z,26.1914,-97.0507,-2.0,26.47,11111222 
TABS,ioos:station:wmo:42044:1,2004-07-10T02:30:00Z,26.1914,-97.0507,-2.0,26.37,11111222 
TABS,ioos:station:wmo:42044:1,2004-07-10T03:00:00Z,26.1914,-97.0507,-2.0,26.35,11111222 
TABS,ioos:station:wmo:42044:1,2004-07-10T03:30:00Z,26.1914,-97.0507,-2.0,26.31,11111222 
TABS,ioos:station:wmo:42044:1,2004-07-10T04:00:00Z,26.1914,-97.0507,-2.0,26.26,11111222 
TABS,ioos:station:wmo:42044:1,2004-07-10T04:30:00Z,26.1914,-97.0507,-2.0,26.21,11111222 
TABS,ioos:station:wmo:42044:1,2004-07-10T05:30:00Z,26.1914,-97.0507,-2.0,26.11,11111222 
TABS,ioos:station:wmo:42044:1,2004-07-10T06:00:00Z,26.1914,-97.0507,-2.0,26.09,11111222 
TABS,ioos:station:wmo:42044:1,2004-07-10T06:30:00Z,26.1914,-97.0507,-2.0,26.03,11111222 
TABS,ioos:station:wmo:42044:1,2004-07-10T07:00:00Z,26.1914,-97.0507,-2.0,26.1,11111222 
TABS,ioos:station:wmo:42044:1,2004-07-10T07:30:00Z,26.1914,-97.0507,-2.0,26.14,11111222 
TABS,ioos:station:wmo:42044:1,2004-07-10T08:00:00Z,26.1914,-97.0507,-2.0,26.14,11111222 
TABS,ioos:station:wmo:42044:1,2004-07-10T08:30:00Z,26.1914,-97.0507,-2.0,26.13,11111222 
TABS,ioos:station:wmo:42044:1,2004-07-10T09:00:00Z,26.1914,-97.0507,-2.0,26.11,11111222 
TABS,ioos:station:wmo:42044:1,2004-07-10T09:30:00Z,26.1914,-97.0507,-2.0,26.13,11111222 
TABS,ioos:station:wmo:42044:1,2004-07-10T10:00:00Z,26.1914,-97.0507,-2.0,26.13,11111222 
TABS,ioos:station:wmo:42044:1,2004-07-10T10:30:00Z,26.1914,-97.0507,-2.0,26.11,11111222 
TABS,ioos:station:wmo:42044:1,2004-07-10T11:00:00Z,26.1914,-97.0507,-2.0,26.04,11111222 
TABS,ioos:station:wmo:42044:1,2004-07-10T11:30:00Z,26.1914,-97.0507,-2.0,25.99,11111222 
TABS,ioos:station:wmo:42044:1,2004-07-10T12:00:00Z,26.1914,-97.0507,-2.0,25.92,11111222 
TABS,ioos:station:wmo:42044:1,2004-07-10T12:30:00Z,26.1914,-97.0507,-2.0,25.87,11111222 
TABS,ioos:station:wmo:42044:1,2004-07-10T13:00:00Z,26.1914,-97.0507,-2.0,25.8,11111222 
TABS,ioos:station:wmo:42044:1,2004-07-10T13:30:00Z,26.1914,-97.0507,-2.0,25.77,11111222 
TABS,ioos:station:wmo:42044:1,2004-07-10T14:00:00Z,26.1914,-97.0507,-2.0,25.74,11111222 
TABS,ioos:station:wmo:42044:1,2004-07-10T14:30:00Z,26.1914,-97.0507,-2.0,25.6,11111222 
TABS,ioos:station:wmo:42044:1,2004-07-10T15:00:00Z,26.1914,-97.0507,-2.0,25.59,11111222 
TABS,ioos:station:wmo:42044:1,2004-07-10T15:30:00Z,26.1914,-97.0507,-2.0,25.54,11111222 
TABS,ioos:station:wmo:42044:1,2004-07-10T16:00:00Z,26.1914,-97.0507,-2.0,25.64,11111222 
TABS,ioos:station:wmo:42044:1,2004-07-10T16:30:00Z,26.1914,-97.0507,-2.0,25.52,11111222 
TABS,ioos:station:wmo:42044:1,2004-07-10T17:00:00Z,26.1914,-97.0507,-2.0,25.52,11111222 
TABS,ioos:station:wmo:42044:1,2004-07-10T18:00:00Z,26.1914,-97.0507,-2.0,25.63,11111222 
TABS,ioos:station:wmo:42044:1,2004-07-10T18:30:00Z,26.1914,-97.0507,-2.0,25.67,11111222 
TABS,ioos:station:wmo:42044:1,2004-07-10T19:00:00Z,26.1914,-97.0507,-2.0,25.87,11111222 
TABS,ioos:station:wmo:42044:1,2004-07-10T19:30:00Z,26.1914,-97.0507,-2.0,25.95,11111222 
TABS,ioos:station:wmo:42044:1,2004-07-10T20:00:00Z,26.1914,-97.0507,-2.0,25.96,11111222 
TABS,ioos:station:wmo:42044:1,2004-07-10T20:30:00Z,26.1914,-97.0507,-2.0,26.17,11111222 
TABS,ioos:station:wmo:42044:1,2004-07-10T21:00:00Z,26.1914,-97.0507,-2.0,26.4,11111222 
TABS,ioos:station:wmo:42044:1,2004-07-10T21:30:00Z,26.1914,-97.0507,-2.0,26.28,11111222 
TABS,ioos:station:wmo:42044:1,2004-07-10T22:00:00Z,26.1914,-97.0507,-2.0,26.18,11111222 
TABS,ioos:station:wmo:42044:1,2004-07-10T22:30:00Z,26.1914,-97.0507,-2.0,26.18,11111222 
TABS,ioos:station:wmo:42044:1,2004-07-10T23:00:00Z,26.1914,-97.0507,-2.0,26.26,11111222 
TABS,ioos:station:wmo:42044:1,2004-07-10T23:30:00Z,26.1914,-97.0507,-2.0,26.22,11111222 
TABS,ioos:station:wmo:42044:1,2004-07-11T00:00:00Z,26.1914,-97.0507,-2.0,26.2,11111222 
TABS,ioos:station:wmo:42044:1,2004-07-11T00:30:00Z,26.1914,-97.0507,-2.0,26.31,11111222 
TABS,ioos:station:wmo:42044:1,2004-07-11T01:00:00Z,26.1914,-97.0507,-2.0,26.3,11111222 
TABS,ioos:station:wmo:42044:1,2004-07-11T01:30:00Z,26.1914,-97.0507,-2.0,26.29,11111222 
TABS,ioos:station:wmo:42044:1,2004-07-11T02:30:00Z,26.1914,-97.0507,-2.0,26.22,11111222 
TABS,ioos:station:wmo:42044:1,2004-07-11T03:00:00Z,26.1914,-97.0507,-2.0,26.13,11111222 
TABS,ioos:station:wmo:42044:1,2004-07-11T03:30:00Z,26.1914,-97.0507,-2.0,26.09,11111222 
TABS,ioos:station:wmo:42044:1,2004-07-11T04:00:00Z,26.1914,-97.0507,-2.0,26.07,11111222 
TABS,ioos:station:wmo:42044:1,2004-07-11T04:30:00Z,26.1914,-97.0507,-2.0,26.04,11111222 
TABS,ioos:station:wmo:42044:1,2004-07-11T05:00:00Z,26.1914,-97.0507,-2.0,26.06,11111222 
TABS,ioos:station:wmo:42044:1,2004-07-11T05:30:00Z,26.1914,-97.0507,-2.0,25.87,11111222 
TABS,ioos:station:wmo:42044:1,2004-07-11T06:00:00Z,26.1914,-97.0507,-2.0,25.85,11111222 
TABS,ioos:station:wmo:42044:1,2004-07-11T06:30:00Z,26.1914,-97.0507,-2.0,25.82,11111222 
TABS,ioos:station:wmo:42044:1,2004-07-11T07:00:00Z,26.1914,-97.0507,-2.0,25.81,11111222 
TABS,ioos:station:wmo:42044:1,2004-07-11T07:30:00Z,26.1914,-97.0507,-2.0,25.85,11111222 
TABS,ioos:station:wmo:42044:1,2004-07-11T08:00:00Z,26.1914,-97.0507,-2.0,25.84,11111222 
TABS,ioos:station:wmo:42044:1,2004-07-11T08:30:00Z,26.1914,-97.0507,-2.0,25.82,11111222 
TABS,ioos:station:wmo:42044:1,2004-07-11T09:00:00Z,26.1914,-97.0507,-2.0,25.85,11111222 
TABS,ioos:station:wmo:42044:1,2004-07-11T09:30:00Z,26.1914,-97.0507,-2.0,25.85,11111222 
TABS,ioos:station:wmo:42044:1,2004-07-11T10:00:00Z,26.1914,-97.0507,-2.0,25.92,11111222 
TABS,ioos:station:wmo:42044:1,2004-07-11T10:30:00Z,26.1914,-97.0507,-2.0,25.91,11111222 
TABS,ioos:station:wmo:42044:1,2004-07-11T11:00:00Z,26.1914,-97.0507,-2.0,25.86,11111222 
TABS,ioos:station:wmo:42044:1,2004-07-11T11:30:00Z,26.1914,-97.0507,-2.0,25.8,11111222 
TABS,ioos:station:wmo:42044:1,2004-07-11T12:00:00Z,26.1914,-97.0507,-2.0,25.73,11111222 
TABS,ioos:station:wmo:42044:1,2004-07-11T12:30:00Z,26.1914,-97.0507,-2.0,25.63,11111222 
TABS,ioos:station:wmo:42044:1,2004-07-11T13:00:00Z,26.1914,-97.0507,-2.0,25.6,11111222 
TABS,ioos:station:wmo:42044:1,2004-07-11T13:30:00Z,26.1914,-97.0507,-2.0,25.59,11111222 
TABS,ioos:station:wmo:42044:1,2004-07-11T14:00:00Z,26.1914,-97.0507,-2.0,25.51,11111222 
TABS,ioos:station:wmo:42044:1,2004-07-11T14:30:00Z,26.1914,-97.0507,-2.0,25.35,11111222 
TABS,ioos:station:wmo:42044:1,2004-07-11T16:00:00Z,26.1914,-97.0507,-2.0,25.01,11111222 
TABS,ioos:station:wmo:42044:1,2004-07-11T16:30:00Z,26.1914,-97.0507,-2.0,25.0,11111222 
TABS,ioos:station:wmo:42044:1,2004-07-11T17:00:00Z,26.1914,-97.0507,-2.0,25.01,11111222 
TABS,ioos:station:wmo:42044:1,2004-07-11T17:30:00Z,26.1914,-97.0507,-2.0,25.01,11111222 
TABS,ioos:station:wmo:42044:1,2004-07-11T18:00:00Z,26.1914,-97.0507,-2.0,24.99,11111222 
TABS,ioos:station:wmo:42044:1,2004-07-11T19:30:00Z,26.1914,-97.0507,-2.0,24.99,11111222 
TABS,ioos:station:wmo:42044:1,2004-07-11T20:00:00Z,26.1914,-97.0507,-2.0,25.05,11111222 
TABS,ioos:station:wmo:42044:1,2004-07-11T20:30:00Z,26.1914,-97.0507,-2.0,25.12,11111222 
TABS,ioos:station:wmo:42044:1,2004-07-11T21:00:00Z,26.1914,-97.0507,-2.0,25.12,11111222 
TABS,ioos:station:wmo:42044:1,2004-07-11T21:30:00Z,26.1914,-97.0507,-2.0,25.35,11111222 
TABS,ioos:station:wmo:42044:1,2004-07-11T22:00:00Z,26.1914,-97.0507,-2.0,25.47,11111222 
TABS,ioos:station:wmo:42044:1,2004-07-11T22:30:00Z,26.1914,-97.0507,-2.0,25.29,11111222 
TABS,ioos:station:wmo:42044:1,2004-07-11T23:30:00Z,26.1914,-97.0507,-2.0,25.38,11111222 
TABS,ioos:station:wmo:42044:1,2004-07-12T00:00:00Z,26.1914,-97.0507,-2.0,25.31,11111222 
TABS,ioos:station:wmo:42044:1,2004-07-12T00:30:00Z,26.1914,-97.0507,-2.0,25.36,11111222 
TABS,ioos:station:wmo:42044:1,2004-07-12T01:00:00Z,26.1914,-97.0507,-2.0,25.33,11111222 
TABS,ioos:station:wmo:42044:1,2004-07-12T01:30:00Z,26.1914,-97.0507,-2.0,25.25,11111222 
TABS,ioos:station:wmo:42044:1,2004-07-12T02:00:00Z,26.1914,-97.0507,-2.0,25.38,11111222 
TABS,ioos:station:wmo:42044:1,2004-07-12T02:30:00Z,26.1914,-97.0507,-2.0,25.24,11111222 
TABS,ioos:station:wmo:42044:1,2004-07-12T03:00:00Z,26.1914,-97.0507,-2.0,25.26,11111222 
TABS,ioos:station:wmo:42044:1,2004-07-12T03:30:00Z,26.1914,-97.0507,-2.0,25.16,11111222 
TABS,ioos:station:wmo:42044:1,2004-07-12T04:00:00Z,26.1914,-97.0507,-2.0,25.3,11111222 
TABS,ioos:station:wmo:42044:1,2004-07-12T04:30:00Z,26.1914,-97.0507,-2.0,25.2,11111222 
TABS,ioos:station:wmo:42044:1,2004-07-12T05:00:00Z,26.1914,-97.0507,-2.0,25.33,11111222 
TABS,ioos:station:wmo:42044:1,2004-07-12T05:30:00Z,26.1914,-97.0507,-2.0,25.18,11111222 
TABS,ioos:station:wmo:42044:1,2004-07-12T06:00:00Z,26.1914,-97.0507,-2.0,25.33,11111222 
TABS,ioos:station:wmo:42044:1,2004-07-12T06:30:00Z,26.1914,-97.0507,-2.0,25.29,11111222 
TABS,ioos:station:wmo:42044:1,2004-07-12T07:00:00Z,26.1914,-97.0507,-2.0,25.3,11111222 
TABS,ioos:station:wmo:42044:1,2004-07-12T07:30:00Z,26.1914,-97.0507,-2.0,25.26,11111222 
TABS,ioos:station:wmo:42044:1,2004-07-12T08:00:00Z,26.1914,-97.0507,-2.0,25.31,11111222 
TABS,ioos:station:wmo:42044:1,2004-07-12T08:30:00Z,26.1914,-97.0507,-2.0,25.29,11111222 
TABS,ioos:station:wmo:42044:1,2004-07-12T09:00:00Z,26.1914,-97.0507,-2.0,25.31,11111222 
TABS,ioos:station:wmo:42044:1,2004-07-12T09:30:00Z,26.1914,-97.0507,-2.0,25.32,11111222 
TABS,ioos:station:wmo:42044:1,2004-07-12T10:00:00Z,26.1914,-97.0507,-2.0,25.34,11111222 
TABS,ioos:station:wmo:42044:1,2004-07-12T10:30:00Z,26.1914,-97.0507,-2.0,25.33,11111222 
TABS,ioos:station:wmo:42044:1,2004-07-12T11:00:00Z,26.1914,-97.0507,-2.0,25.34,11111222 
TABS,ioos:station:wmo:42044:1,2004-07-12T11:30:00Z,26.1914,-97.0507,-2.0,25.28,11111222 
TABS,ioos:station:wmo:42044:1,2004-07-12T12:00:00Z,26.1914,-97.0507,-2.0,25.21,11111222 
TABS,ioos:station:wmo:42044:1,2004-07-12T12:30:00Z,26.1914,-97.0507,-2.0,25.15,11111222 
TABS,ioos:station:wmo:42044:1,2004-07-12T13:00:00Z,26.1914,-97.0507,-2.0,25.12,11111222 
TABS,ioos:station:wmo:42044:1,2004-07-12T13:30:00Z,26.1914,-97.0507,-2.0,24.98,11111222 
TABS,ioos:station:wmo:42044:1,2004-07-12T14:00:00Z,26.1914,-97.0507,-2.0,25.2,11111222 
TABS,ioos:station:wmo:42044:1,2004-07-12T14:30:00Z,26.1914,-97.0507,-2.0,25.21,11111222 
TABS,ioos:station:wmo:42044:1,2004-07-12T15:00:00Z,26.1914,-97.0507,-2.0,25.03,11111222 
TABS,ioos:station:wmo:42044:1,2004-07-12T15:30:00Z,26.1914,-97.0507,-2.0,25.13,11111222 
TABS,ioos:station:wmo:42044:1,2004-07-12T16:00:00Z,26.1914,-97.0507,-2.0,24.99,11111222 
TABS,ioos:station:wmo:42044:1,2004-07-12T16:30:00Z,26.1914,-97.0507,-2.0,24.97,11111222 
TABS,ioos:station:wmo:42044:1,2004-07-12T17:00:00Z,26.1914,-97.0507,-2.0,25.03,11111222 
TABS,ioos:station:wmo:42044:1,2004-07-12T17:30:00Z,26.1914,-97.0507,-2.0,25.12,11111222 
TABS,ioos:station:wmo:42044:1,2004-07-12T18:00:00Z,26.1914,-97.0507,-2.0,25.14,11111222 
TABS,ioos:station:wmo:42044:1,2004-07-12T18:30:00Z,26.1914,-97.0507,-2.0,25.12,11111222 
TABS,ioos:station:wmo:42044:1,2004-07-12T19:00:00Z,26.1914,-97.0507,-2.0,25.08,11111222 
TABS,ioos:station:wmo:42044:1,2004-07-12T19:30:00Z,26.1914,-97.0507,-2.0,25.18,11111222 
TABS,ioos:station:wmo:42044:1,2004-07-12T20:00:00Z,26.1914,-97.0507,-2.0,25.35,11111222 
TABS,ioos:station:wmo:42044:1,2004-07-12T20:30:00Z,26.1914,-97.0507,-2.0,25.27,11111222 
TABS,ioos:station:wmo:42044:1,2004-07-12T21:00:00Z,26.1914,-97.0507,-2.0,25.3,11111222 
TABS,ioos:station:wmo:42044:1,2004-07-12T21:30:00Z,26.1914,-97.0507,-2.0,25.15,11111222 
TABS,ioos:station:wmo:42044:1,2004-07-12T22:00:00Z,26.1914,-97.0507,-2.0,24.98,11111222 
TABS,ioos:station:wmo:42044:1,2004-07-12T22:30:00Z,26.1914,-97.0507,-2.0,24.93,11111222 
TABS,ioos:station:wmo:42044:1,2004-07-12T23:00:00Z,26.1914,-97.0507,-2.0,25.1,11111222 
TABS,ioos:station:wmo:42044:1,2004-07-12T23:30:00Z,26.1914,-97.0507,-2.0,24.76,11111222 
TABS,ioos:station:wmo:42044:1,2004-07-13T00:00:00Z,26.1914,-97.0507,-2.0,25.31,11111222 
TABS,ioos:station:wmo:42044:1,2004-07-13T00:30:00Z,26.1914,-97.0507,-2.0,25.77,11111222 
TABS,ioos:station:wmo:42044:1,2004-07-13T01:00:00Z,26.1914,-97.0507,-2.0,26.09,11111222 
TABS,ioos:station:wmo:42044:1,2004-07-13T01:30:00Z,26.1914,-97.0507,-2.0,26.12,11111222 
TABS,ioos:station:wmo:42044:1,2004-07-13T02:00:00Z,26.1914,-97.0507,-2.0,26.18,11111222 
TABS,ioos:station:wmo:42044:1,2004-07-13T02:30:00Z,26.1914,-97.0507,-2.0,26.25,11111222 
TABS,ioos:station:wmo:42044:1,2004-07-13T03:00:00Z,26.1914,-97.0507,-2.0,26.24,11111222 
TABS,ioos:station:wmo:42044:1,2004-07-13T03:30:00Z,26.1914,-97.0507,-2.0,26.22,11111222 
TABS,ioos:station:wmo:42044:1,2004-07-13T04:00:00Z,26.1914,-97.0507,-2.0,26.23,11111222 
TABS,ioos:station:wmo:42044:1,2004-07-13T04:30:00Z,26.1914,-97.0507,-2.0,26.23,11111222 
TABS,ioos:station:wmo:42044:1,2004-07-13T05:00:00Z,26.1914,-97.0507,-2.0,26.23,11111222 
TABS,ioos:station:wmo:42044:1,2004-07-13T05:30:00Z,26.1914,-97.0507,-2.0,26.22,11111222 
TABS,ioos:station:wmo:42044:1,2004-07-13T06:00:00Z,26.1914,-97.0507,-2.0,26.21,11111222 
TABS,ioos:station:wmo:42044:1,2004-07-13T06:30:00Z,26.1914,-97.0507,-2.0,26.22,11111222 
TABS,ioos:station:wmo:42044:1,2004-07-13T07:00:00Z,26.1914,-97.0507,-2.0,26.23,11111222 
TABS,ioos:station:wmo:42044:1,2004-07-13T07:30:00Z,26.1914,-97.0507,-2.0,26.17,11111222 
TABS,ioos:station:wmo:42044:1,2004-07-13T08:00:00Z,26.1914,-97.0507,-2.0,26.26,11111222 
TABS,ioos:station:wmo:42044:1,2004-07-13T08:30:00Z,26.1914,-97.0507,-2.0,26.28,11111222 
TABS,ioos:station:wmo:42044:1,2004-07-13T09:00:00Z,26.1914,-97.0507,-2.0,26.3,11111222 
TABS,ioos:station:wmo:42044:1,2004-07-13T09:30:00Z,26.1914,-97.0507,-2.0,26.32,11111222 
TABS,ioos:station:wmo:42044:1,2004-07-13T10:00:00Z,26.1914,-97.0507,-2.0,26.29,11111222 
TABS,ioos:station:wmo:42044:1,2004-07-13T10:30:00Z,26.1914,-97.0507,-2.0,26.23,11111222 
TABS,ioos:station:wmo:42044:1,2004-07-13T11:00:00Z,26.1914,-97.0507,-2.0,26.22,11111222 
TABS,ioos:station:wmo:42044:1,2004-07-13T11:30:00Z,26.1914,-97.0507,-2.0,26.2,11111222 
TABS,ioos:station:wmo:42044:1,2004-07-13T12:00:00Z,26.1914,-97.0507,-2.0,26.22,11111222 
TABS,ioos:station:wmo:42044:1,2004-07-13T12:30:00Z,26.1914,-97.0507,-2.0,26.23,11111222 
TABS,ioos:station:wmo:42044:1,2004-07-13T13:00:00Z,26.1914,-97.0507,-2.0,26.21,11111222 
TABS,ioos:station:wmo:42044:1,2004-07-13T13:30:00Z,26.1914,-97.0507,-2.0,26.2,11111222 
TABS,ioos:station:wmo:42044:1,2004-07-13T14:00:00Z,26.1914,-97.0507,-2.0,26.23,11111222 
TABS,ioos:station:wmo:42044:1,2004-07-13T14:30:00Z,26.1914,-97.0507,-2.0,26.22,11111222 
TABS,ioos:station:wmo:42044:1,2004-07-13T15:00:00Z,26.1914,-97.0507,-2.0,26.25,11111222 
TABS,ioos:station:wmo:42044:1,2004-07-13T15:30:00Z,26.1914,-97.0507,-2.0,26.25,11111222 
TABS,ioos:station:wmo:42044:1,2004-07-13T16:00:00Z,26.1914,-97.0507,-2.0,26.25,11111222 
TABS,ioos:station:wmo:42044:1,2004-07-13T16:30:00Z,26.1914,-97.0507,-2.0,26.27,11111222 
TABS,ioos:station:wmo:42044:1,2004-07-13T17:00:00Z,26.1914,-97.0507,-2.0,26.29,11111222 
TABS,ioos:station:wmo:42044:1,2004-07-13T17:30:00Z,26.1914,-97.0507,-2.0,26.3,11111222 
TABS,ioos:station:wmo:42044:1,2004-07-13T18:00:00Z,26.1914,-97.0507,-2.0,26.31,11111222 
TABS,ioos:station:wmo:42044:1,2004-07-13T18:30:00Z,26.1914,-97.0507,-2.0,26.3,11111222 
TABS,ioos:station:wmo:42044:1,2004-07-13T19:00:00Z,26.1914,-97.0507,-2.0,26.29,11111222 